Regional Weather Roundup
Issued by NWS

Home | Current Version | Previous Version | Text Only | Print | Product List | Glossary Off
Versions: 1 2 3 4 5 6 7 8 9 10 11 12 13 14 15 16 17 18 19 20 21 22 23 24 25 26 27 28 29 30 31 32 33 34 35 36 37 38 39 40 41 42 43 44 45 46 47 48 49 50

000
ASUS43 KOAX 181710
RWRNE

WEATHER ROUNDUP FOR NEBRASKA
NATIONAL WEATHER SERVICE OMAHA NE
1200 PM CDT THU SEP 18 2014

NOTES: SATELLITE DATA IS BEING USED TO AUGMENT CLOUD COVER ABOVE
       12000 FEET.
       "FAIR" INDICATES FEW OR NO CLOUDS BELOW 12,000 FEET WITH NO
       SIGNIFICANT WEATHER AND/OR OBSTRUCTIONS TO VISIBILITY.

  * THESE STATIONS DO NOT REPORT WEATHER SUCH AS RAIN...SNOW OR FOG.

NEZ001>004-019>022-054>056-181800-
NEBRASKA PANHANDLE

CITY           SKY/WX    TMP DP  RH WIND       PRES   REMARKS
SCOTTSBLUFF    SUNNY     71  55  56 CALM      29.96F
ALLIANCE       SUNNY     73  59  61 S14       29.96S
CHADRON        SUNNY     78  56  46 S7        29.88F
KIMBALL        SUNNY     83  44  25 S6        30.00S
SIDNEY         SUNNY     73  57  57 S13       30.01F
$$

NEZ057>060-069>072-079>082-181800-
SOUTHWEST NEBRASKA

CITY           SKY/WX    TMP DP  RH WIND       PRES   REMARKS
NORTH PLATTE   CLOUDY    68  61  78 SE10      29.99S
IMPERIAL       CLOUDY    65  63  93 SE10      30.00S FOG
LEXINGTON      CLOUDY    66  62  85 S15       30.00R
MCCOOK         CLOUDY    64  63  96 SE10      29.99S FOG
OGALLALA       CLOUDY    68  64  89 S9        29.99F
$$

NEZ005>010-023>029-035>040-094-181800-
NORTH CENTRAL NEBRASKA

CITY           SKY/WX    TMP DP  RH WIND       PRES   REMARKS
VALENTINE      CLOUDY    72  61  68 S16G23    29.93F
AINSWORTH      SUNNY     72  56  57 S17G25    29.97S
BROKEN BOW     SUNNY     73  57  57 SE17      29.99F
O`NEILL        CLOUDY    67  61  81 S17G25    30.00S
ORD            PTSUNNY   68  59  73 SE12      30.00S
THEDFORD       CLOUDY    68  61  78 S16       29.99R
$$

NEZ041-046>049-061>064-073>077-083>087-181800-
SOUTH CENTRAL NEBRASKA

CITY           SKY/WX    TMP DP  RH WIND       PRES   REMARKS
GRAND ISLAND   SUNNY     72  59  63 SE17G23   30.01S
AURORA         SUNNY     72  60  67 SE13      30.01S
HASTINGS       SUNNY     70  58  65 SE13      30.00S
HEBRON         MOSUNNY   75  61  62 SE13G20   30.00S
HOLDREGE       CLOUDY    66  61  84 SE14      30.00S
KEARNEY *      SUNNY     72  61  68 SE16      30.00S
YORK           MOSUNNY   70  64  83 SE10      30.01S
$$

NEZ011>018-030>034-042>045-181800-
NORTHEAST NEBRASKA

CITY           SKY/WX    TMP DP  RH WIND       PRES   REMARKS
NORFOLK        PTSUNNY   70  59  68 SE14      30.02S
ALBION         CLOUDY    64  61  90 S8        30.03S
BLAIR          SUNNY     70  58  65 SE12      30.04F
COLUMBUS *     MOSUNNY   70  59  68 S10       30.04S
FREMONT        MOSUNNY   71  58  64 SE10      30.04S
TEKAMAH        MOSUNNY   70  59  68 S9        30.04F
WAYNE          MOSUNNY   70  59  69 S14       30.04S
$$

NEZ050>053-065>068-078-088>093-181800-
SOUTHEAST NEBRASKA

CITY           SKY/WX    TMP DP  RH WIND       PRES   REMARKS
LINCOLN        SUNNY     72  59  63 SE10      30.03S
OMAHA EPPLEY   MOSUNNY   70  57  63 SE8       30.04S
BEATRICE       SUNNY     73  60  64 S12G18    30.02R
FALLS CITY     CLOUDY    64  60  87 E9        30.05R
NEBRASKA CITY  SUNNY     71  50  47 SE9       30.04R
PLATTSMOUTH    SUNNY     71  56  59 E3        30.04S
$$

NEZ044-045-051>053-067-181800-
OMAHA AREA

CITY           SKY/WX    TMP DP  RH WIND       PRES   REMARKS
OMAHA EPPLEY   MOSUNNY   70  57  63 SE8       30.04S
BLAIR          SUNNY     70  58  65 SE12      30.04F
FREMONT        MOSUNNY   71  58  64 SE10      30.04S
MILLARD        SUNNY     71  60  68 SE5       30.03S
PLATTSMOUTH    SUNNY     71  56  59 E3        30.04S
WAHOO          PTSUNNY   71  59  65 SE9       30.03F
$$



USA.gov is the U.S. government's official web portal to all federal, state and local government web resources and services.